SCP
0 0 0 0 0 0 0 0 0 0 0 0 0 0 0 0 0 0 0 0 0 0 0 0 0 0 0 0 0 0 0 0 0 0 0 0 0 0 0 0 0 0 0
0 0 0 0 0 0 0 0 0 0 0 0 0 0 0 0 0 0 0 0 0 0 0 0 0 0 0 0 0 0 0 0 0 0 0 0 0 0 0 0 0 0 0
0 0 0 0 0 0 0 0 0 0 0 0 0 0 0 0 0 0 0 0 0 0 0 0 0 0 0 0 0 0 0 0 0 0 0 0 0 0 0 0 0 0 0
0 0 0 0 0 0 0 0 0 0 0 0 0 0 0 0 0 0 0 0 0 0 0 0 0 0 0 0 0 0 0 0 0 0 0 0 0 0 0 0 0 0 0
0 0 0 0 0 0 0 0 0 0 0 0 0 0 0 0 0 0 0 0 0 0 0 0 0 0 0 0 0 0 0 0 0 0 0 0 0 0 0 0 0 0 0
0 0 0 0 0 0 0 0 0 0 0 0 0 0 0 0 0 0 0 0 0 0 0 0 0 0 0 0 0 0 0 0 0 0 0 0 0 0 0 0 0 0 0
0 0 0 0 0 0 0 0 0 0 0 0 0 0 0 0 0 0 0 0 0 0 0 0 0 0 0 0 0 0 0 0 0 0 0 0 0 0 0 0 0 0 0
0 0 0 0 0 0 0 0 0 0 0 0 0 0 0 0 0 0 0 0 0 0 0 0 0 0 0 0 0 0 0 0 0 0 0 0 0 0 0 0 0 0 0
0 0 0 0 0 0 0 0 0 0 0 0 0 0 0 0 0 0 0 0 0 0 0 0 0 0 0 0 0 0 0 0 0 0 0 0 0 0 0 0 0 0 0
0 0 0 0 0 0 0 0 0 0 0 0 0 0 0 0 0 0 0 0 0 0 0 0 0 0 0 0 0 0 0 0 0 0 0 0 0 0 0 0 0 0 0
0 0 0 0 0 0 0 0 0 0 0 0 0 0 0 0 0 0 0 0 0 0 0 0 0 0 0 0 0 0 0 0 0 0 0 0 0 0 0 0 0 0 0
0 0 0 0 0 0 0 0 0 0 0 0 0 0 0 0 0 0 0 0 0 0 0 0 0 0 0 0 0 0 0 0 0 0 0 0 0 0 0 0 0 0 0
0 0 0 0 0 0 0 0 0 0 0 0 0 0 0 0 0 0 0 0 0 0 0 0 0 0 0 0 0 0 0 0 0 0 0 0 0 0 0 0 0 0 0
0 0 0 0 0 0 0 0 0 0 0 0 0 0 0 0 0 0 0 0 0 0 0 0 0 0 0 0 0 0 0 0 0 0 0 0 0 0 0 0 0 0 0
0 0 0 0 0 0 0 0 0 0 0 0 0 0 0 0 0 0 0 0 0 0 0 0 0 0 0 0 0 0 0 0 0 0 0 0 0 0 0 0 0 0 0
0 0 0 0 0 0 0 0 0 0 0 0 0 0 0 0 0 0 0 0 0 0 0 0 0 0 0 0 0 0 0 0 0 0 0 0 0 0 0 0 0 0 0
0 0 0 0 0 0 0 0 0 0 0 0 0 0 0 0 0 0 0 0 0 0 0 0 0 0 0 0 0 0 0 0 0 0 0 0 0 0 0 0 0 0 0
0 0 0 0 0 0 0 0 0 0 0 0 0 0 0 0 0 0 0 0 0 0 0 0 0 0 0 0 0 0 0 0 0 0 0 0 0 0 0 0 0 0 0
0 0 0 0 0 0 0 0 0 0 0 0 0 0 0 0 0 0 0 0 0 0 0 0 0 0 0 0 0 0 0 0 0 0 0 0 0 0 0 0 0 0 0
0 0 0 0 0 0 0 0 0 0 0 0 0 0 0 0 0 0 0 0 0 0 0 0 0 0 0 0 0 0 0 0 0 0 0 0 0 0 0 0 0 0 0
0 0 0 0 0 0 0 0 0 0 0 0 0 0 0 0 0 0 0 0 0 0 0 0 0 0 0 0 0 0 0 0 0 0 0 0 0 0 0 0 0 0 0
0 0 0 0 0 0 0 0 0 0 0 0 0 0 0 0 0 0 0 0 0 0 0 0 0 0 0 0 0 0 0 0 0 0 0 0 0 0 0 0 0 0 0
0 0 0 0 0 0 0 0 0 0 0 0 0 0 0 0 0 0 0 0 0 0 0 0 0 0 0 0 0 0 0 0 0 0 0 0 0 0 0 0 0 0 0
0 0 0 0 0 0 0 0 0 0 0 0 0 0 0 0 0 0 0 0 0 0 0 0 0 0 0 0 0 0 0 0 0 0 0 0 0 0 0 0 0 0 0
0 0 0 0 0 0 0 0 0 0 0 0 0 0 0 0 0 0 0 0 0 0 0 0 0 0 0 0 0 0 0 0 0 0 0 0 0 0 0 0 0 0 0
0 0 0 0 0 0 0 0 0 0 0 0 0 0 0 0 0 0 0 0 0 0 0 0 0 0 0 0 0 0 0 0 0 0 0 0 0 0 0 0 0 0 0
Wind_Speed_500mb
29 34 38 40 40 41 41 40 41 39 44 46 47 47 46 41 40 38 37 37 38 38 38 39 39 39 39 39 39 39 40 39 38 38 36 31 32 35 32 33 30 31 33
27 33 35 37 39 39 41 43 42 41 42 44 44 44 42 42 42 42 41 40 39 39 41 41 41 42 41 41 43 39 38 37 34 36 33 20 18 24 25 34 31 29 20
27 33 37 37 39 39 39 40 43 45 47 47 48 49 51 51 51 51 49 47 44 43 44 44 42 43 44 45 45 39 39 38 40 36 28 16 8 31 30 29 22 19 26
44 41 37 39 40 40 38 37 36 36 38 40 43 47 51 54 54 57 56 53 52 49 47 45 45 44 46 46 43 37 34 39 37 37 31 27 21 13 23 18 24 28 34
43 43 47 50 50 46 42 38 37 38 38 40 42 44 47 51 52 55 55 54 52 50 49 46 44 42 43 40 38 35 33 33 34 28 27 26 23 23 27 37 17 32 21
21 32 36 39 45 44 41 38 38 39 40 41 43 45 47 49 48 49 47 44 42 41 40 40 40 40 39 37 35 32 31 31 28 29 31 31 20 16 19 26 34 42 39
10 17 20 21 26 30 30 29 28 28 29 30 32 34 36 39 42 44 43 40 40 40 41 39 37 36 36 35 32 29 30 29 27 28 29 29 29 28 28 28 30 30 39
14 17 19 20 21 20 19 17 15 13 11 11 11 12 13 15 19 23 30 33 32 31 32 33 33 33 34 29 28 28 27 29 27 28 26 23 21 22 23 23 22 18 18
19 19 19 20 21 20 19 16 14 10 7 4 2 2 2 4 6 8 10 16 23 25 25 27 29 31 26 27 29 29 29 27 24 20 18 17 18 18 20 22 22 18 12
23 23 22 21 21 20 19 17 13 10 6 3 1 2 4 4 5 7 7 8 13 19 23 25 27 27 28 29 28 25 22 18 15 13 11 12 16 21 24 26 26 26 21
24 25 25 24 24 23 20 17 14 11 7 4 3 4 6 7 8 9 10 11 12 15 18 21 24 26 27 25 22 19 18 16 14 14 14 15 21 26 29 33 35 33 34
22 25 27 28 26 25 23 19 14 9 5 2 4 6 9 10 10 10 10 11 12 14 16 18 21 21 20 19 18 18 19 20 21 20 19 20 23 29 33 34 37 38 36
24 30 32 30 28 23 19 13 9 4 2 7 10 12 11 11 12 12 12 12 12 13 14 15 17 18 18 19 20 21 22 22 22 23 24 25 25 28 33 36 39 40 39
25 30 31 29 26 22 16 14 11 8 10 14 17 18 17 16 15 15 15 15 16 17 18 18 18 18 20 21 22 23 23 24 26 27 28 29 30 33 35 38 40 40 39
34 36 33 30 27 26 25 22 18 15 16 19 19 17 16 16 16 16 16 16 17 19 19 20 21 22 23 23 23 23 24 26 28 30 31 34 36 37 36 35 36 34 32
49 42 36 31 29 29 31 29 26 21 21 21 21 18 18 19 21 21 20 20 20 21 22 23 24 25 26 27 28 28 29 30 31 32 34 35 35 34 34 35 33 30 27
49 49 47 43 34 30 35 39 33 29 29 27 24 22 23 23 24 24 24 24 24 24 24 25 26 28 31 33 31 29 29 29 30 30 31 32 31 29 28 27 27 26 26
55 52 53 59 57 36 38 44 38 34 33 30 26 25 22 20 20 23 25 27 28 29 29 29 29 30 34 34 30 29 29 28 28 29 29 28 26 23 18 16 17 18 20
74 75 64 51 58 60 37 45 39 39 37 31 27 23 18 17 20 24 27 30 32 33 33 32 32 33 36 34 30 28 27 26 25 23 22 20 20 16 16 13 13 15 17
46 54 65 67 54 54 53 50 44 42 36 30 26 21 19 20 24 26 28 29 31 32 32 32 32 34 34 34 28 25 23 22 21 19 17 16 15 10 9 10 13 15 16
38 31 36 47 45 42 46 44 43 39 34 28 23 19 20 22 25 27 29 31 32 32 32 32 31 32 32 31 24 19 18 17 17 16 16 14 12 12 17 20 15 12 10
34 31 23 26 33 37 39 39 36 33 26 22 20 20 23 26 27 28 30 31 31 31 31 31 31 30 30 27 24 19 17 16 16 15 14 12 18 24 25 16 9 6 6
17 18 14 19 28 32 33 30 27 22 19 19 22 26 28 30 31 29 28 29 30 31 31 31 31 30 28 24 21 16 16 17 14 13 14 19 22 13 7 7 7 7 6
9 10 14 20 23 24 24 22 20 21 24 26 28 30 31 29 28 28 27 28 29 30 31 31 29 27 25 25 23 19 16 16 15 19 19 14 8 3 3 6 6 7 9
11 12 13 12 15 19 22 25 27 28 28 30 32 32 29 27 25 25 25 25 26 27 28 27 27 26 27 25 22 17 15 19 22 17 11 6 2 2 2 3 6 9 12
19 20 20 21 22 25 29 32 33 34 35 36 35 31 29 28 27 26 25 24 24 24 26 25 23 24 24 21 22 19 21 23 12 10 9 7 6 5 4 4 7 9 10
Wind_Direction_500mb
218 223 223 225 229 232 234 235 235 233 233 235 237 241 244 248 252 255 255 253 253 254 257 263 269 273 276 282 280 277 277 280 282 284 289 289 296 293 292 292 296 305 306
226 225 227 229 232 236 237 235 234 232 232 235 240 244 250 252 253 253 253 252 254 255 257 261 267 272 277 282 282 278 280 283 283 279 287 294 295 298 302 296 298 301 301
237 234 234 232 232 235 236 235 236 236 238 240 243 246 248 252 254 257 257 257 259 259 259 259 262 267 274 279 280 274 279 276 282 279 271 280 257 303 301 294 296 301 312
249 243 237 235 233 232 231 231 232 234 235 238 242 247 251 255 258 259 261 261 259 259 259 259 262 264 272 276 277 271 269 275 281 279 268 269 270 292 303 309 316 317 321
251 247 242 235 232 229 229 230 232 235 238 242 247 251 255 258 260 262 262 261 261 260 258 257 257 262 267 270 269 265 270 270 273 263 272 273 287 281 262 295 301 308 301
240 227 228 230 226 226 229 234 241 247 252 255 257 257 258 259 259 260 262 263 260 257 253 253 257 258 259 262 263 261 262 267 261 262 269 276 265 261 255 276 299 306 317
185 188 190 192 203 212 220 227 235 242 247 250 252 254 258 260 261 261 261 260 259 258 257 257 255 252 256 263 257 254 258 261 262 262 266 268 269 275 277 268 272 286 311
181 175 172 173 177 184 188 191 194 199 207 217 233 245 254 265 267 263 257 254 253 252 250 247 244 246 257 254 252 253 252 258 261 262 263 265 269 272 275 277 284 295 278
195 185 179 177 170 165 165 168 169 172 180 187 206 273 296 302 301 292 273 255 248 246 241 238 243 253 245 246 256 256 255 257 257 257 263 274 284 294 303 302 298 289 298
208 200 185 178 174 167 166 165 165 164 164 176 179 310 308 315 304 294 281 260 242 238 239 243 247 250 252 256 255 251 246 240 240 249 265 288 303 302 299 300 304 300 285
217 204 192 184 175 168 163 158 147 136 121 90 41 343 317 316 311 299 289 275 264 256 252 252 255 258 260 257 251 241 234 233 237 245 256 277 290 296 304 307 307 303 303
223 205 193 184 178 168 163 157 144 127 104 46 354 338 330 323 311 307 300 291 280 270 263 260 259 255 249 243 239 238 240 244 245 246 257 277 298 304 305 307 304 303 303
218 201 193 188 179 175 173 164 151 141 347 326 321 312 304 301 300 297 289 283 280 273 264 256 249 245 241 238 239 243 248 252 255 263 273 282 293 299 306 305 305 305 306
216 206 200 192 190 194 197 204 213 248 285 297 296 290 287 289 290 289 286 281 276 269 264 260 255 251 248 248 250 255 261 265 271 276 282 290 297 305 307 307 309 309 309
225 214 203 198 205 215 219 218 223 250 275 284 284 281 284 285 285 286 286 283 275 269 265 263 261 259 259 261 264 268 274 280 284 287 290 295 301 303 305 303 301 302 304
229 226 219 216 219 226 227 224 230 255 266 268 266 269 279 287 290 288 287 287 285 280 273 269 269 271 274 278 284 290 290 291 291 293 292 291 291 291 292 296 299 306 308
250 238 236 230 229 234 233 229 234 253 255 250 250 261 270 277 281 283 284 282 279 277 276 275 274 275 275 276 279 285 288 285 283 282 284 287 290 293 298 303 306 307 311
269 258 250 241 232 232 230 227 234 250 238 231 239 252 257 265 274 280 280 278 275 272 270 270 272 275 278 284 291 294 293 288 284 280 281 284 289 293 296 297 301 306 312
275 274 272 264 249 238 242 231 243 235 225 224 233 234 247 266 278 280 278 276 273 272 271 273 275 276 279 284 288 289 287 284 281 279 276 274 280 298 303 307 313 313 313
285 274 264 262 259 244 242 229 232 221 217 222 225 235 252 273 281 280 275 271 267 265 263 263 265 266 270 274 281 285 284 281 276 273 270 275 277 286 307 323 313 304 304
301 301 271 250 249 240 226 222 215 211 214 219 232 252 275 285 285 282 278 272 268 264 263 262 263 264 265 271 278 271 269 264 261 258 259 267 268 298 313 314 307 303 305
282 279 268 239 225 215 214 209 205 208 214 227 251 273 287 288 285 281 277 273 269 265 262 259 256 254 258 264 266 264 259 253 239 239 245 263 288 302 307 313 321 340 15
276 272 232 211 206 201 195 195 202 213 231 257 275 284 284 283 280 276 274 271 267 264 261 256 254 252 253 258 263 257 246 243 229 232 259 276 288 304 348 19 40 48 34
249 232 206 167 172 184 192 202 220 244 258 268 276 280 281 281 281 278 274 270 268 267 265 261 256 252 248 245 243 246 240 226 251 269 270 275 277 325 23 46 45 41 40
255 221 216 214 201 211 223 235 248 258 268 277 283 282 279 276 275 275 273 268 264 262 259 255 247 242 238 237 243 246 241 254 264 259 251 222 168 120 90 81 57 42 38
281 281 262 254 251 251 254 260 266 273 279 282 281 275 269 270 272 272 269 268 263 257 252 247 235 234 234 233 237 235 250 263 232 221 206 195 177 168 137 83 66 49 31
Wind_Speed_850mb
29 34 38 40 40 41 41 40 41 39 44 46 47 47 46 41 40 38 37 37 38 38 38 39 39 39 39 39 39 39 40 39 38 38 36 31 32 35 32 33 30 31 33
27 33 35 37 39 39 41 43 42 41 42 44 44 44 42 42 42 42 41 40 39 39 41 41 41 42 41 41 43 39 38 37 34 36 33 20 18 24 25 34 31 29 20
27 33 37 37 39 39 39 40 43 45 47 47 48 49 51 51 51 51 49 47 44 43 44 44 42 43 44 45 45 39 39 38 40 36 28 16 8 31 30 29 22 19 26
44 41 37 39 40 40 38 37 36 36 38 40 43 47 51 54 54 57 56 53 52 49 47 45 45 44 46 46 43 37 34 39 37 37 31 27 21 13 23 18 24 28 34
43 43 47 50 50 46 42 38 37 38 38 40 42 44 47 51 52 55 55 54 52 50 49 46 44 42 43 40 38 35 33 33 34 28 27 26 23 23 27 37 17 32 21
21 32 36 39 45 44 41 38 38 39 40 41 43 45 47 49 48 49 47 44 42 41 40 40 40 40 39 37 35 32 31 31 28 29 31 31 20 16 19 26 34 42 39
10 17 20 21 26 30 30 29 28 28 29 30 32 34 36 39 42 44 43 40 40 40 41 39 37 36 36 35 32 29 30 29 27 28 29 29 29 28 28 28 30 30 39
14 17 19 20 21 20 19 17 15 13 11 11 11 12 13 15 19 23 30 33 32 31 32 33 33 33 34 29 28 28 27 29 27 28 26 23 21 22 23 23 22 18 18
19 19 19 20 21 20 19 16 14 10 7 4 2 2 2 4 6 8 10 16 23 25 25 27 29 31 26 27 29 29 29 27 24 20 18 17 18 18 20 22 22 18 12
23 23 22 21 21 20 19 17 13 10 6 3 1 2 4 4 5 7 7 8 13 19 23 25 27 27 28 29 28 25 22 18 15 13 11 12 16 21 24 26 26 26 21
24 25 25 24 24 23 20 17 14 11 7 4 3 4 6 7 8 9 10 11 12 15 18 21 24 26 27 25 22 19 18 16 14 14 14 15 21 26 29 33 35 33 34
22 25 27 28 26 25 23 19 14 9 5 2 4 6 9 10 10 10 10 11 12 14 16 18 21 21 20 19 18 18 19 20 21 20 19 20 23 29 33 34 37 38 36
24 30 32 30 28 23 19 13 9 4 2 7 10 12 11 11 12 12 12 12 12 13 14 15 17 18 18 19 20 21 22 22 22 23 24 25 25 28 33 36 39 40 39
25 30 31 29 26 22 16 14 11 8 10 14 17 18 17 16 15 15 15 15 16 17 18 18 18 18 20 21 22 23 23 24 26 27 28 29 30 33 35 38 40 40 39
34 36 33 30 27 26 25 22 18 15 16 19 19 17 16 16 16 16 16 16 17 19 19 20 21 22 23 23 23 23 24 26 28 30 31 34 36 37 36 35 36 34 32
49 42 36 31 29 29 31 29 26 21 21 21 21 18 18 19 21 21 20 20 20 21 22 23 24 25 26 27 28 28 29 30 31 32 34 35 35 34 34 35 33 30 27
49 49 47 43 34 30 35 39 33 29 29 27 24 22 23 23 24 24 24 24 24 24 24 25 26 28 31 33 31 29 29 29 30 30 31 32 31 29 28 27 27 26 26
55 52 53 59 57 36 38 44 38 34 33 30 26 25 22 20 20 23 25 27 28 29 29 29 29 30 34 34 30 29 29 28 28 29 29 28 26 23 18 16 17 18 20
74 75 64 51 58 60 37 45 39 39 37 31 27 23 18 17 20 24 27 30 32 33 33 32 32 33 36 34 30 28 27 26 25 23 22 20 20 16 16 13 13 15 17
46 54 65 67 54 54 53 50 44 42 36 30 26 21 19 20 24 26 28 29 31 32 32 32 32 34 34 34 28 25 23 22 21 19 17 16 15 10 9 10 13 15 16
38 31 36 47 45 42 46 44 43 39 34 28 23 19 20 22 25 27 29 31 32 32 32 32 31 32 32 31 24 19 18 17 17 16 16 14 12 12 17 20 15 12 10
34 31 23 26 33 37 39 39 36 33 26 22 20 20 23 26 27 28 30 31 31 31 31 31 31 30 30 27 24 19 17 16 16 15 14 12 18 24 25 16 9 6 6
17 18 14 19 28 32 33 30 27 22 19 19 22 26 28 30 31 29 28 29 30 31 31 31 31 30 28 24 21 16 16 17 14 13 14 19 22 13 7 7 7 7 6
9 10 14 20 23 24 24 22 20 21 24 26 28 30 31 29 28 28 27 28 29 30 31 31 29 27 25 25 23 19 16 16 15 19 19 14 8 3 3 6 6 7 9
11 12 13 12 15 19 22 25 27 28 28 30 32 32 29 27 25 25 25 25 26 27 28 27 27 26 27 25 22 17 15 19 22 17 11 6 2 2 2 3 6 9 12
19 20 20 21 22 25 29 32 33 34 35 36 35 31 29 28 27 26 25 24 24 24 26 25 23 24 24 21 22 19 21 23 12 10 9 7 6 5 4 4 7 9 10
Wind_Direction_850mb
218 223 223 225 229 232 234 235 235 233 233 235 237 241 244 248 252 255 255 253 253 254 257 263 269 273 276 282 280 277 277 280 282 284 289 289 296 293 292 292 296 305 306
226 225 227 229 232 236 237 235 234 232 232 235 240 244 250 252 253 253 253 252 254 255 257 261 267 272 277 282 282 278 280 283 283 279 287 294 295 298 302 296 298 301 301
237 234 234 232 232 235 236 235 236 236 238 240 243 246 248 252 254 257 257 257 259 259 259 259 262 267 274 279 280 274 279 276 282 279 271 280 257 303 301 294 296 301 312
249 243 237 235 233 232 231 231 232 234 235 238 242 247 251 255 258 259 261 261 259 259 259 259 262 264 272 276 277 271 269 275 281 279 268 269 270 292 303 309 316 317 321
251 247 242 235 232 229 229 230 232 235 238 242 247 251 255 258 260 262 262 261 261 260 258 257 257 262 267 270 269 265 270 270 273 263 272 273 287 281 262 295 301 308 301
240 227 228 230 226 226 229 234 241 247 252 255 257 257 258 259 259 260 262 263 260 257 253 253 257 258 259 262 263 261 262 267 261 262 269 276 265 261 255 276 299 306 317
185 188 190 192 203 212 220 227 235 242 247 250 252 254 258 260 261 261 261 260 259 258 257 257 255 252 256 263 257 254 258 261 262 262 266 268 269 275 277 268 272 286 311
181 175 172 173 177 184 188 191 194 199 207 217 233 245 254 265 267 263 257 254 253 252 250 247 244 246 257 254 252 253 252 258 261 262 263 265 269 272 275 277 284 295 278
195 185 179 177 170 165 165 168 169 172 180 187 206 273 296 302 301 292 273 255 248 246 241 238 243 253 245 246 256 256 255 257 257 257 263 274 284 294 303 302 298 289 298
208 200 185 178 174 167 166 165 165 164 164 176 179 310 308 315 304 294 281 260 242 238 239 243 247 250 252 256 255 251 246 240 240 249 265 288 303 302 299 300 304 300 285
217 204 192 184 175 168 163 158 147 136 121 90 41 343 317 316 311 299 289 275 264 256 252 252 255 258 260 257 251 241 234 233 237 245 256 277 290 296 304 307 307 303 303
223 205 193 184 178 168 163 157 144 127 104 46 354 338 330 323 311 307 300 291 280 270 263 260 259 255 249 243 239 238 240 244 245 246 257 277 298 304 305 307 304 303 303
218 201 193 188 179 175 173 164 151 141 347 326 321 312 304 301 300 297 289 283 280 273 264 256 249 245 241 238 239 243 248 252 255 263 273 282 293 299 306 305 305 305 306
216 206 200 192 190 194 197 204 213 248 285 297 296 290 287 289 290 289 286 281 276 269 264 260 255 251 248 248 250 255 261 265 271 276 282 290 297 305 307 307 309 309 309
225 214 203 198 205 215 219 218 223 250 275 284 284 281 284 285 285 286 286 283 275 269 265 263 261 259 259 261 264 268 274 280 284 287 290 295 301 303 305 303 301 302 304
229 226 219 216 219 226 227 224 230 255 266 268 266 269 279 287 290 288 287 287 285 280 273 269 269 271 274 278 284 290 290 291 291 293 292 291 291 291 292 296 299 306 308
250 238 236 230 229 234 233 229 234 253 255 250 250 261 270 277 281 283 284 282 279 277 276 275 274 275 275 276 279 285 288 285 283 282 284 287 290 293 298 303 306 307 311
269 258 250 241 232 232 230 227 234 250 238 231 239 252 257 265 274 280 280 278 275 272 270 270 272 275 278 284 291 294 293 288 284 280 281 284 289 293 296 297 301 306 312
275 274 272 264 249 238 242 231 243 235 225 224 233 234 247 266 278 280 278 276 273 272 271 273 275 276 279 284 288 289 287 284 281 279 276 274 280 298 303 307 313 313 313
285 274 264 262 259 244 242 229 232 221 217 222 225 235 252 273 281 280 275 271 267 265 263 263 265 266 270 274 281 285 284 281 276 273 270 275 277 286 307 323 313 304 304
301 301 271 250 249 240 226 222 215 211 214 219 232 252 275 285 285 282 278 272 268 264 263 262 263 264 265 271 278 271 269 264 261 258 259 267 268 298 313 314 307 303 305
282 279 268 239 225 215 214 209 205 208 214 227 251 273 287 288 285 281 277 273 269 265 262 259 256 254 258 264 266 264 259 253 239 239 245 263 288 302 307 313 321 340 15
276 272 232 211 206 201 195 195 202 213 231 257 275 284 284 283 280 276 274 271 267 264 261 256 254 252 253 258 263 257 246 243 229 232 259 276 288 304 348 19 40 48 34
249 232 206 167 172 184 192 202 220 244 258 268 276 280 281 281 281 278 274 270 268 267 265 261 256 252 248 245 243 246 240 226 251 269 270 275 277 325 23 46 45 41 40
255 221 216 214 201 211 223 235 248 258 268 277 283 282 279 276 275 275 273 268 264 262 259 255 247 242 238 237 243 246 241 254 264 259 251 222 168 120 90 81 57 42 38
281 281 262 254 251 251 254 260 266 273 279 282 281 275 269 270 272 272 269 268 263 257 252 247 235 234 234 233 237 235 250 263 232 221 206 195 177 168 137 83 66 49 31